[[{"header":{"parameterUnit":"m.s-1","parameterCategory":1,"la1":30.2991,"la2":30.254,"lo1":-89.0895,"lo2":-89.0444,"dy":0.0017,"dx":0.0017,"nx":28,"ny":28,"refTime":"2025-11-04T09:00:00:Z","depth":0,"parameterNumber":2,"parameterNumberName":"U-component_of_WINDS"},"data":[0,0,0,0,0,0,0,0,0,0,0,0,0,0,0,0,0,0,0,0,0,0,0,0,0,0,0,0,0,0,0,0,0,0,0,0,0,0,0,0,0,0,0,0,0,0,0,0,0,0,0,0,0,0,0,0,0,0,0.409,0.409,0,0.4129,0.413,0.413,0.4139,0.4139,0.4139,0.4138,0.4177,0.4178,0.418,0,0,0,0,0,0,0,0,0,0,0,0,0,0.4019,0.402,0.409,0.409,0.4091,0.4129,0.413,0.413,0.4139,0.4139,0.4139,0.4138,0.4177,0.4178,0.418,0,0,0,0,0,0,0,0,0,0,0,0,0,0.4053,0.4021,0.409,0.41,0.4101,0.4129,0.413,0.4131,0.4139,0.4139,0.4139,0.4138,0.4176,0.4178,0.418,0.42,0,0,0.4186,0.4187,0,0,0,0,0,0,0,0,0.4051,0.4056,0.4098,0.4099,0.4101,0.4129,0.4119,0.4154,0.4139,0.4125,0.4138,0.4138,0.4161,0.4164,0.4173,0.4202,0.4203,0.4186,0.4187,0.4188,0.4188,0,0,0,0,0,0,0,0.4049,0.4054,0.4105,0.4098,0.41,0.4102,0.4106,0.4126,0.4145,0.4126,0.4127,0.4131,0.4162,0.4171,0.4174,0.4204,0.4186,0.4188,0.4189,0.4189,0.4251,0.4252,0,0,0,0,0,0,0.4045,0.4052,0.4104,0.4106,0.4075,0.4103,0.4108,0.412,0.4145,0.4148,0.4132,0.4132,0.4168,0.4171,0.4175,0.42,0.4188,0.419,0.4191,0.4251,0.4251,0.4252,0,0,0,0,0,0,0.4044,0.405,0.4102,0.408,0.4086,0.4105,0.4118,0.4121,0.413,0.4149,0.4152,0.4138,0.4168,0.4172,0.4194,0.4202,0.4191,0.4192,0.425,0.4251,0.4252,0.4251,0,0,0,0,0,0,0.4041,0.4049,0.4057,0.408,0.4088,0.4121,0.4119,0.4122,0.4134,0.4134,0.4155,0.4158,0.4168,0.4191,0.4196,0.4204,0.4194,0.425,0.4251,0.4251,0.425,0.4251,0.4252,0,0,0,0,0,0.4039,0.4055,0.4058,0.4064,0.4099,0.4122,0.4126,0.4137,0.4134,0.4143,0.4155,0.4158,0.42,0.4193,0.4199,0.4208,0.4249,0.425,0.4251,0.4249,0.4251,0.4252,0,0,0,0,0,0,0.4032,0.4058,0.4062,0.4086,0.4101,0.4123,0.4134,0.4138,0.4155,0.4154,0.4167,0.4171,0.4192,0.4202,0.4194,0.4228,0.4224,0.4227,0.4221,0.4223,0.4224,0.4221,0.4195,0,0,0,0,0,0.4034,0.4051,0.4073,0.4092,0.41,0.4115,0.4126,0.4133,0.415,0.4156,0.417,0.4185,0.4202,0.4213,0.4229,0.4251,0.4256,0.426,0.4261,0.4262,0.4264,0.4276,0.4278,0.4256,0.4256,0.4256,0,0,0.4037,0.4053,0.4063,0.4091,0.4104,0.4121,0.4121,0.4139,0.4151,0.4159,0.418,0.419,0.4208,0.423,0.4241,0.4239,0.4271,0.4263,0.4264,0.4265,0.4277,0.4279,0.4281,0.4256,0.4256,0.4256,0,0,0.4051,0.4065,0.4083,0.4096,0.4116,0.4127,0.4131,0.4152,0.416,0.4181,0.4187,0.4202,0.423,0.4243,0.4253,0.4272,0.4275,0.4277,0.4283,0.4294,0.4296,0.4298,0.4304,0.4307,0.4279,0.4279,0.4279,0,0.4052,0.4079,0.4091,0.4109,0.4121,0.4129,0.4146,0.4158,0.4182,0.419,0.4188,0.4224,0.4237,0.4262,0.4266,0.4274,0.4279,0.4275,0.4295,0.4297,0.4298,0.4305,0.4307,0.4279,0.4279,0.4279,0.4279,0,0.4079,0.4097,0.4109,0.4133,0.4146,0.4163,0.4178,0.4189,0.4195,0.4205,0.4227,0.4242,0.4262,0.4269,0.4274,0.4294,0.4293,0.4293,0.4289,0.4301,0.4307,0.4309,0.4279,0.4279,0.4279,0.4279,0,0,0.409,0.4121,0.4125,0.4136,0.4159,0.4173,0.4191,0.4211,0.422,0.4236,0.4251,0.4275,0.4275,0.4287,0.4294,0.4304,0.4318,0.4303,0.4304,0.4305,0.434,0.434,0.4343,0.432,0.4321,0.4321,0.4339,0,0.4108,0.414,0.4152,0.4178,0.4195,0.4203,0.4218,0.4233,0.4243,0.4258,0.4269,0.4286,0.4285,0.4292,0.4303,0.4314,0.4325,0.4313,0.4333,0.4334,0.4329,0.4346,0.4346,0.4362,0.4341,0.4342,0.4342,0,0.4132,0.4149,0.4178,0.4199,0.4206,0.422,0.4239,0.4253,0.4271,0.4277,0.429,0.4296,0.4314,0.4309,0.4334,0.4325,0.4334,0.4341,0.4342,0.4344,0.4339,0.4349,0.4368,0.437,0.4346,0.4346,0.4345,0,0.4137,0.4168,0.4189,0.4198,0.4223,0.4232,0.4243,0.4259,0.4271,0.4287,0.4294,0.4312,0.4322,0.4335,0.4346,0.4342,0.4369,0.4366,0.4375,0.4374,0.438,0.438,0.4401,0.4386,0.4386,0.4386,0.4386,0,0.4155,0.4172,0.4192,0.4205,0.4224,0.4236,0.4255,0.4265,0.428,0.4295,0.4302,0.4316,0.4329,0.4344,0.4352,0.4371,0.4375,0.438,0.4382,0.438,0.4379,0.4386,0.4385,0.4387,0.4386,0.4386,0.4386,0,0.4165,0.4178,0.4202,0.4223,0.4229,0.4242,0.426,0.4273,0.4283,0.4301,0.4306,0.4322,0.434,0.4352,0.4375,0.438,0.4401,0.4402,0.4395,0.4396,0.4405,0.4404,0.443,0.4434,0.4417,0.4417,0.4417,0,0.4175,0.4189,0.4212,0.4223,0.4233,0.425,0.4262,0.4275,0.4286,0.4307,0.4317,0.4335,0.4351,0.4379,0.4392,0.4409,0.4411,0.4419,0.4414,0.441,0.4411,0.441,0.4411,0.442,0.442,0.442,0.442,0,0.4192,0.4198,0.4216,0.4235,0.4249,0.4265,0.428,0.4288,0.4303,0.4316,0.4335,0.4347,0.437,0.4388,0.4407,0.4417,0.4421,0.4422,0.4425,0.4422,0.4418,0.442,0.4398,0.4421,0.4421,0.4421,0.4421,0.4421,0.4203,0.4215,0.4233,0.4252,0.4265,0.4279,0.4292,0.4304,0.4321,0.4341,0.4347,0.4367,0.4383,0.4408,0.4419,0.4433,0.4432,0.4437,0.4438,0.4439,0.4439,0.4415,0.4437,0.4437,0.4437,0.4437,0.4437,0,0.422,0.4232,0.4249,0.4271,0.4286,0.4289,0.4307,0.4318,0.4336,0.4351,0.4366,0.4387,0.4405,0.4419,0.4437,0.4446,0.4449,0.4451,0.445,0.4452,0.4439,0.4434,0.4448,0.4448,0.4448,0.4448,0.4448,0.4448,0.4231,0.4252,0.426,0.4287,0.4299,0.4319,0.4329,0.4342,0.4354,0.4378,0.4393,0.4402,0.4417,0.4436,0.4452,0.4456,0.4462,0.4463,0.4467,0.4454,0.4453,0.4452,0.4448,0.4465,0.4465,0.448,0.448,0.448]},{"header":{"parameterUnit":"m.s-1","parameterCategory":1,"la1":30.2991,"la2":30.254,"lo1":-89.0895,"lo2":-89.0444,"dy":0.0017,"dx":0.0017,"nx":28,"ny":28,"refTime":"2025-11-04T09:00:00:Z","depth":0,"parameterNumber":3,"parameterNumberName":"V-component_of_WINDS"},"data":[0,0,0,0,0,0,0,0,0,0,0,0,0,0,0,0,0,0,0,0,0,0,0,0,0,0,0,0,0,0,0,0,0,0,0,0,0,0,0,0,0,0,0,0,0,0,0,0,0,0,0,0,0,0,0,0,0,0,-0.5266,-0.5267,0,-0.5345,-0.5346,-0.5346,-0.5367,-0.5367,-0.5366,-0.5366,-0.5453,-0.5456,-0.5459,0,0,0,0,0,0,0,0,0,0,0,0,0,-0.514,-0.5142,-0.5266,-0.5267,-0.5268,-0.5344,-0.5346,-0.5347,-0.5367,-0.5367,-0.5366,-0.5365,-0.5453,-0.5456,-0.5459,0,0,0,0,0,0,0,0,0,0,0,0,0,-0.5204,-0.5143,-0.5265,-0.5287,-0.529,-0.5344,-0.5346,-0.5347,-0.5367,-0.5367,-0.5366,-0.5365,-0.5451,-0.5456,-0.546,-0.5501,0,0,-0.5472,-0.5474,0,0,0,0,0,0,0,0,-0.5201,-0.5209,-0.5283,-0.5286,-0.5289,-0.5345,-0.5333,-0.5399,-0.5368,-0.5338,-0.5366,-0.5365,-0.5418,-0.5425,-0.5442,-0.5505,-0.5508,-0.5473,-0.5475,-0.5477,-0.5478,0,0,0,0,0,0,0,-0.5196,-0.5206,-0.5297,-0.5284,-0.5288,-0.5295,-0.5303,-0.5346,-0.5382,-0.5341,-0.5342,-0.5351,-0.542,-0.5438,-0.5444,-0.551,-0.5473,-0.5476,-0.5479,-0.5481,-0.5612,-0.5613,0,0,0,0,0,0,-0.5187,-0.5202,-0.5295,-0.5299,-0.5242,-0.5298,-0.5307,-0.5328,-0.5381,-0.5389,-0.5352,-0.5352,-0.5431,-0.5439,-0.5447,-0.55,-0.5477,-0.5481,-0.5484,-0.5611,-0.5612,-0.5613,0,0,0,0,0,0,-0.5184,-0.5195,-0.5291,-0.5251,-0.5264,-0.5301,-0.5324,-0.533,-0.5348,-0.5389,-0.5397,-0.5363,-0.5431,-0.5441,-0.5487,-0.5503,-0.5483,-0.5487,-0.561,-0.5611,-0.5613,-0.5605,0,0,0,0,0,0,-0.5181,-0.5194,-0.5208,-0.5251,-0.5266,-0.5328,-0.5325,-0.5332,-0.5354,-0.5355,-0.5402,-0.5409,-0.5431,-0.5481,-0.5491,-0.5509,-0.549,-0.5609,-0.561,-0.5612,-0.5604,-0.5606,-0.5607,0,0,0,0,0,-0.5176,-0.5204,-0.5209,-0.522,-0.5284,-0.5328,-0.5337,-0.536,-0.5355,-0.5371,-0.5398,-0.5408,-0.5499,-0.5485,-0.5497,-0.5516,-0.5608,-0.561,-0.5612,-0.5603,-0.5605,-0.5607,0,0,0,0,0,0,-0.5164,-0.521,-0.5216,-0.5258,-0.5289,-0.5332,-0.5352,-0.5361,-0.5396,-0.5396,-0.5425,-0.5435,-0.5479,-0.5502,-0.5486,-0.556,-0.5554,-0.5559,-0.5543,-0.5545,-0.5547,-0.5541,-0.5494,0,0,0,0,0,-0.5166,-0.5196,-0.5235,-0.5269,-0.5284,-0.5315,-0.5335,-0.535,-0.5384,-0.5398,-0.5428,-0.5463,-0.55,-0.5524,-0.556,-0.5607,-0.5619,-0.5626,-0.5628,-0.5629,-0.5633,-0.5661,-0.5666,-0.562,-0.562,-0.562,0,0,-0.5171,-0.52,-0.5217,-0.5267,-0.5293,-0.5325,-0.5326,-0.536,-0.5386,-0.5404,-0.5449,-0.5472,-0.5513,-0.556,-0.5582,-0.558,-0.5648,-0.5632,-0.5632,-0.5636,-0.5664,-0.5668,-0.5672,-0.5622,-0.5621,-0.5621,0,0,-0.5197,-0.5221,-0.5252,-0.5277,-0.5315,-0.5336,-0.5343,-0.5385,-0.5401,-0.5445,-0.546,-0.5492,-0.5554,-0.5583,-0.5606,-0.5643,-0.5654,-0.5654,-0.5664,-0.5691,-0.5695,-0.5698,-0.5713,-0.5718,-0.5658,-0.5658,-0.5658,0,-0.5199,-0.5247,-0.5267,-0.5301,-0.5323,-0.5339,-0.5372,-0.5396,-0.5445,-0.5462,-0.5459,-0.5538,-0.5566,-0.5621,-0.5629,-0.5647,-0.5658,-0.5649,-0.5692,-0.5696,-0.5699,-0.5714,-0.572,-0.5658,-0.5658,-0.5658,-0.5658,0,-0.5248,-0.5281,-0.5302,-0.5346,-0.5371,-0.5404,-0.5432,-0.5455,-0.5468,-0.549,-0.5536,-0.5571,-0.5615,-0.5629,-0.5642,-0.5686,-0.5684,-0.5686,-0.5681,-0.5703,-0.5718,-0.5723,-0.5658,-0.5658,-0.5658,-0.5658,0,0,-0.527,-0.5324,-0.5332,-0.5353,-0.5396,-0.5423,-0.5458,-0.5499,-0.5519,-0.5552,-0.5584,-0.5636,-0.5639,-0.5665,-0.5682,-0.5705,-0.5735,-0.5705,-0.5707,-0.5711,-0.5787,-0.5786,-0.5792,-0.5741,-0.5742,-0.5743,-0.5784,0,-0.5302,-0.5362,-0.5382,-0.5433,-0.5465,-0.548,-0.5511,-0.5542,-0.5564,-0.5596,-0.5621,-0.5658,-0.5658,-0.5674,-0.5697,-0.5726,-0.575,-0.5723,-0.5774,-0.5775,-0.5764,-0.5799,-0.5798,-0.5834,-0.5789,-0.579,-0.5791,0,-0.5348,-0.538,-0.5433,-0.5473,-0.5487,-0.5514,-0.5554,-0.5583,-0.562,-0.5634,-0.5663,-0.5678,-0.5718,-0.5709,-0.5766,-0.5747,-0.5769,-0.5786,-0.5788,-0.5795,-0.5785,-0.5808,-0.5846,-0.5852,-0.58,-0.5799,-0.5798,0,-0.536,-0.5417,-0.5456,-0.5473,-0.552,-0.5539,-0.556,-0.5595,-0.5619,-0.5655,-0.5671,-0.5711,-0.5734,-0.5766,-0.5793,-0.5784,-0.5847,-0.5841,-0.5863,-0.5862,-0.5877,-0.5876,-0.592,-0.5888,-0.5888,-0.5888,-0.5888,0,-0.5395,-0.5428,-0.5462,-0.5486,-0.5524,-0.5548,-0.5585,-0.5608,-0.5639,-0.567,-0.5687,-0.5716,-0.5749,-0.5783,-0.5805,-0.585,-0.586,-0.5874,-0.588,-0.5873,-0.5872,-0.5889,-0.5888,-0.5889,-0.5889,-0.5889,-0.5889,0,-0.5415,-0.5439,-0.5484,-0.5524,-0.5535,-0.5561,-0.5597,-0.5623,-0.5645,-0.5684,-0.5695,-0.573,-0.5772,-0.5801,-0.5855,-0.587,-0.5918,-0.5923,-0.5905,-0.5908,-0.5929,-0.5927,-0.5987,-0.5997,-0.5957,-0.5957,-0.5958,0,-0.5437,-0.5462,-0.5504,-0.5525,-0.5545,-0.5579,-0.5602,-0.5627,-0.5652,-0.5695,-0.5717,-0.5758,-0.5793,-0.586,-0.5892,-0.5934,-0.5941,-0.5959,-0.5947,-0.5941,-0.5943,-0.5942,-0.5946,-0.5961,-0.5962,-0.5962,-0.5962,0,-0.5473,-0.5483,-0.5515,-0.5551,-0.5579,-0.5609,-0.564,-0.5657,-0.5688,-0.5715,-0.5756,-0.5783,-0.5837,-0.588,-0.5925,-0.595,-0.5962,-0.5965,-0.5973,-0.5967,-0.5956,-0.5964,-0.5912,-0.5964,-0.5964,-0.5964,-0.5964,-0.5963,-0.5495,-0.5519,-0.5552,-0.5588,-0.5613,-0.5642,-0.5668,-0.5692,-0.5726,-0.5771,-0.5784,-0.5828,-0.5866,-0.5927,-0.5952,-0.5988,-0.5988,-0.5998,-0.6001,-0.6004,-0.6004,-0.5949,-0.5997,-0.5997,-0.5997,-0.5997,-0.5997,0,-0.5533,-0.5555,-0.5588,-0.5629,-0.5658,-0.5664,-0.5699,-0.5723,-0.576,-0.5793,-0.5827,-0.5875,-0.5917,-0.5952,-0.5996,-0.6018,-0.6025,-0.6029,-0.6028,-0.6034,-0.6002,-0.5991,-0.6023,-0.6023,-0.6023,-0.6023,-0.6023,-0.6023,-0.5557,-0.5597,-0.5611,-0.5665,-0.5688,-0.5729,-0.5748,-0.5776,-0.5802,-0.5855,-0.5888,-0.591,-0.5945,-0.5991,-0.603,-0.604,-0.6056,-0.6059,-0.607,-0.6039,-0.6036,-0.6034,-0.6024,-0.6062,-0.6062,-0.61,-0.61,-0.6101]}]]